Regional Weather Roundup
Issued by NWS

Home | Current Version | Previous Version | Text Only | Print | Product List | Glossary Off
Versions: 1 2 3 4 5 6 7 8 9 10 11 12 13 14 15 16 17 18 19 20 21 22 23 24 25 26 27 28 29 30 31 32 33 34 35 36 37 38 39 40 41 42 43 44 45 46 47 48 49 50

145
ASUS43 KMPX 261401
RWRMN
WEATHER ROUNDUP FOR MINNESOTA
NATIONAL WEATHER SERVICE TWIN CITIES/CHANHASSEN MN
900 AM CDT THU APR 26 2018


NOTE: "FAIR" INDICATES FEW OR NO CLOUDS BELOW 12,000 FEET WITH NO
SIGNIFICANT WEATHER AND/OR OBSTRUCTIONS TO VISIBILITY. N/A MEANS
CURRENT SKY AND/OR WEATHER CONDITIONS ARE NOT AVAILABLE.

MNZ060>063-068>070-261500-
   Twin Cities Metro

CITY           SKY/WX    TMP DP  RH WIND       PRES   REMARKS
TWIN CITIES    FAIR      53  34  48 SW12      29.86F
ST PAUL          N/A     51  37  58 MISG      29.87F
CRYSTAL        FAIR      53  32  44 SW13G18   29.85S
BLAINE         PTSUNNY   54  34  47 SW12      29.85S
LAKEVILLE      FAIR      52  36  54 SW6       29.87F
EDEN PRAIRIE   FAIR      52  35  52 SW12      29.85F
SOUTH ST PAUL  FAIR      52  34  51 CALM      29.87R
LAKE ELMO      FAIR      50  36  57 SW8       29.88S
$$
MNZ001>005-007-008-013>017-022>024-027-028-261500-
   Northwest Minnesota

CITY           SKY/WX    TMP DP  RH WIND       PRES   REMARKS
BEMIDJI        FAIR      46  33  60 N15G21    29.91R
HALLOCK        FAIR      43  30  61 N16       30.04R
ROSEAU         FAIR      43  34  70 N14       29.98R
WARROAD        FAIR      43  34  70 NW12      29.97R
THIEF RVR FALL FAIR      41  30  65 NW22G29   30.00R
CROOKSTON      FAIR      43  34  70 N21       30.02R
FOSSTON        FAIR      43  30  61 NW21G29   29.97R
DETROIT LAKES  FAIR      45  32  61 N20G29    29.96R
MOORHEAD       FAIR      46  30  53 N20       30.01R
PARK RAPIDS    FAIR      47  33  58 N16G28    29.90R
MAHNOMEN       FAIR      44  30  58 N15       29.96R
$$
MNZ006-009>011-018-025>026-261500-
   North Central Minnesota

CITY           SKY/WX    TMP DP  RH WIND       PRES   REMARKS
BAUDETTE       FAIR      43  36  76 N14G23    29.92R
FLAG ISLAND    FAIR      37  32  81 NW14      29.95R
INTL FALLS     CLOUDY    44  35  70 N15       29.89R
WASKISH        FAIR      46  36  66 N14G20    29.92R
BIG FORK       FAIR      46  36  66 N12       29.86R
LONGVILLE      FAIR      46  36  66 NW9G18    29.87R
GRAND RAPIDS   FAIR      46  35  65 N17       29.86R
CRANE LAKE     FAIR      43  36  75 N7G17     29.86R
ORR            FAIR      43  34  70 NW6       29.82R
COOK           PTSUNNY   45  34  65 NW13G20   29.84R
WALKER         FAIR      46  33  60 NW13G22   29.89R
$$
MNZ012-019>021-037-261500-
   Northeast Minnesota

CITY           SKY/WX    TMP DP  RH WIND       PRES   REMARKS
DULUTH         FAIR      48  32  53 W9        29.78S
ELY            FAIR      45  28  53 W10       29.80R
HIBBING        CLOUDY    43  31  62 NW15      29.81R
EVELETH        FAIR      43  31  62 NW8       29.81R
DULUTH HARBOR  FAIR      48  36  61 SW10      29.81R
TWO HARBORS    FAIR      52  36  54 W9G16     29.76S
SILVER BAY     FAIR      52  32  46 NW3       29.75S
GRAND MARAIS     N/A     36  29  75 W7        29.77S
G MARAIS ARPRT FAIR      46  27  46 W5        29.75F
$$
MNZ029>031-032-039>041-046>048-054>057-064-261500-
   West Central Minnesota

CITY           SKY/WX    TMP DP  RH WIND       PRES   REMARKS
FERGUS FALLS   FAIR      48  30  49 N17G24    29.93R
WHEATON        SUNNY     46  34  61 NW17G23   30.00R
MORRIS         SUNNY     48  39  71 N15       29.93R
ALEXANDRIA     FAIR      51  34  52 N17G28    29.90R
ELBOW LAKE     FAIR      48  32  55 N21G26    29.95R
WADENA         FAIR      46  34  61 N22G28    29.90R
GLENWOOD       FAIR      48  36  61 N21       29.89R
APPLETON       MOSUNNY   48  37  66 N22G30    29.92R
BENSON         MOSUNNY   48  37  66 NE18G24   29.92R
ORTONVILLE     SUNNY     48  36  61 N24G33    29.95R
WILLMAR        FAIR      45  36  70 NW13      29.89R
$$
MNZ033>034-036-042>043-049>051-058-059-261500-
   Central Minnesota

CITY           SKY/WX    TMP DP  RH WIND       PRES   REMARKS
ST CLOUD       FAIR      49  33  54 W9        29.84S
SAUK CENTRE    FAIR      47  35  63 N15G23    29.88R
PAYNESVILLE    FAIR      47  36  64 NW10      29.86S
AITKIN         FAIR      45  34  65 NW10      29.83R
PINE RIVER     FAIR      45  34  65 N13G21    29.91R
BRAINERD       FAIR      46  33  60 N15       29.86R
STAPLES        FAIR      48  34  57 N18       29.89R
LONG PRAIRIE   FAIR      46  34  61 NW15      29.88R
LITTLE FALLS   FAIR      45  28  53 N6        29.86R
LITCHFIELD     FAIR      48  36  61 W7        29.86R
BUFFALO        FAIR      49  35  57 SW7       29.87R
MAPLE LAKE     FAIR      49  37  63 SW8       29.86S
HUTCHINSON     FAIR      47  37  69 SW7       29.87R
$$
MNZ037-044-045-052-053-261500-
   East Central Minnesota

CITY           SKY/WX    TMP DP  RH WIND       PRES   REMARKS
PRINCETON      FAIR      52  36  54 W7        29.84S
MORA           FAIR      45  34  65 SW5       29.85S
CAMBRIDGE      FAIR      52  36  54 SW5       29.84F
RUSH CITY      FAIR      50  33  51 SW9       29.84S
MOOSE LAKE     FAIR      46  32  57 SW5       29.80F
HINCKLEY       FAIR      48  36  61 SW9       29.83F
CLOQUET        PTSUNNY   46  28  49 W13       29.80R
MCGREGOR       PTSUNNY   45  34  65 NW14      29.83S
$$
MNZ071>073-080-081-089-090-097-098-261500-
   Southwest Minnesota

CITY           SKY/WX    TMP DP  RH WIND       PRES   REMARKS
MONTEVIDEO     CLOUDY    46  37  71 N17G24    29.90R
GRANITE FALLS  CLOUDY    47  40  77 NW15      29.90R
CANBY          PTSUNNY   48  37  66 NW26G32   29.93R
MARSHALL       CLOUDY    47  38  71 NW20G26   29.90R
REDWOOD FALLS  CLOUDY    48  36  63 W14       29.86S
OLIVIA         CLOUDY    50  37  62 W13       29.86R
PIPESTONE      CLOUDY   N/A N/A N/A NW7       29.91R
WINDOM         PTSUNNY   52  28  40 SW12      29.89S
WORTHINGTON    CLOUDY    47  36  65 SW16      29.90R
JACKSON        MOSUNNY   50  34  53 SW9       29.90R
TRACY          CLOUDY    49  39  69 NW23      29.90R
SLAYTON        CLOUDY    46  35  67 W14       29.90R
$$
MNZ065>067-074>077-082>085-091>093-261500-
   South Central Minnesota

CITY           SKY/WX    TMP DP  RH WIND       PRES   REMARKS
NEW ULM        MOSUNNY   48  36  61 SW10      29.87F
ST JAMES       CLOUDY    50  37  62 SW10      29.89S
FAIRMONT       MOSUNNY   50  37  61 SW14      29.89F
GLENCOE        FAIR      48  37  65 SW6       29.85S
OWATONNA       FAIR      52  37  58 SW12      29.90S
WASECA         FAIR      50  37  62 SW9       29.90F
ALBERT LEA     FAIR      48  34  57 SW9       29.90F
$$
MNZ078>079-086>088-094>096-261500-
   Southeast Minnesota

CITY           SKY/WX    TMP DP  RH WIND       PRES   REMARKS
ROCHESTER      FAIR      50  39  66 SW13      29.91F
RED WING       FAIR      52  30  43 W3        29.88F
STANTON        FAIR      51  38  61 S9        29.86F
DODGE CENTER   FAIR      48  37  66 SW17      29.90F
WINONA         FAIR      46  37  71 CALM      29.90F
AUSTIN         FAIR      46  37  71 SW8       29.91F
PRESTON        FAIR      50  36  58 W6        29.93S
$$
ABBREVIATIONS USED IN REMARKS
   TC - TEMPERATURES IN CELSIUS
  WCI - WIND CHILL INDEX
   HX - HEAT INDEX
  VSB - VISIBILITY
$$




USA.gov is the U.S. government's official web portal to all federal, state and local government web resources and services.